Fort Knox, KY

10:29 PM EDT on April 29, 2017 (GMT -0400)
Godman Army Air Field

Weather History for KFTK - February, 2012

Change the Weather History Date:

Wednesday, February 1, 2012

  Actual Average Record
Temperature  
Mean Temperature 56 °F -  
Max Temperature 62 °F 42 °F 62 °F (2012)
Min Temperature 50 °F 25 °F 7 °F (2013)
Degree Days  
Heating Degree Days 9    
Growing Degree Days 6 (Base 50)    
Moisture  
Dew Point 53 °F    
Average Humidity 89    
Maximum Humidity 99    
Minimum Humidity 61    
Precipitation  
Precipitation 0.07 in - - ()
Sea Level Pressure  
Sea Level Pressure 30.06 in    
Wind  
Wind Speed 8 mph (WSW)    
Max Wind Speed 16 mph    
Max Gust Speed 21 mph    
Visibility 10 miles    
Events Rain    
Averages and records for this station are not official NWS values.
T = Trace of Precipitation, MM = Missing Value Source: NWS Daily Summary

Daily Weather History Graph

Daily Weather History Graph

Search for Another Location

Airport or City:

Trip Planner

Search our weather history database for the weather conditions in past years. The results will help you decide how hot, cold, wet, or windy it might be!

Date:

Astronomy

Feb. 01, 2012 Rise Set
Actual Time 7:48 AM EST 6:06 PM EST
Civil Twilight 7:20 AM EST 6:34 PM EST
Nautical Twilight 6:49 AM EST 7:05 PM EST
Astronomical Twilight 6:18 AM EST 7:36 PM EST
Moon 12:35 PM EST (2/1) 2:32 AM EST (2/1)
Length of Visible Light 11h 13m
Length of Day
10h 18m
Waxing Gibbous, 64% of the Moon is Illuminated
Feb 1
Waxing Gibbous
Feb 7
Full
Feb 14
Last Quarter
Feb 21
New
Feb 29
First Quarter

Hourly Weather History & Observations

Time (EST) Temp. Dew Point Humidity Pressure Visibility Wind Dir Wind Speed Gust Speed Precip Events Conditions
12:55 AM 55.9 °F 42.4 °F 61% 30.06 in 10.0 mi SSW 15.0 mph 20.7 mph 0.00 in   Overcast
1:55 AM 54.1 °F 46.0 °F 74% 30.06 in 9.0 mi SSW 16.1 mph - 0.00 in Rain Light Rain
2:55 AM 51.1 °F 48.9 °F 92% 30.07 in 10.0 mi SSW 9.2 mph - 0.07 in   Overcast
3:55 AM 50.7 °F 48.2 °F 91% 30.06 in 10.0 mi SSW 9.2 mph - 0.00 in   Mostly Cloudy
4:55 AM 51.4 °F 49.5 °F 93% 30.06 in 10.0 mi SSW 10.4 mph - N/A   Overcast
5:55 AM 52.9 °F 51.3 °F 94% 30.07 in 10.0 mi SSW 8.1 mph - 0.00 in Rain Light Rain
6:55 AM 53.1 °F 52.0 °F 96% 30.08 in 10.0 mi SW 6.9 mph - 0.00 in   Overcast
7:55 AM 52.7 °F 52.2 °F 98% 30.09 in 10.0 mi SW 4.6 mph - N/A   Overcast
8:55 AM 52.0 °F 51.6 °F 99% 30.11 in 10.0 mi Calm Calm - N/A   Mostly Cloudy
9:55 AM 53.4 °F 53.1 °F 99% 30.11 in 10.0 mi South 4.6 mph - N/A   Overcast
10:55 AM 55.0 °F 54.1 °F 97% 30.11 in 10.0 mi South 4.6 mph - N/A   Overcast
11:24 AM 57.2 °F 55.4 °F 94% 30.09 in 10.0 mi SSW 4.6 mph - N/A   Overcast
11:27 AM 57.2 °F 55.4 °F 94% 30.09 in 10.0 mi SW 4.6 mph - N/A   Overcast
11:55 AM 58.8 °F 55.8 °F 90% 30.09 in 10.0 mi West 5.8 mph - N/A   Overcast
11:56 AM 59.0 °F 55.4 °F 88% 30.15 in 10.0 mi WSW 5.8 mph - N/A   Overcast
12:21 PM 59.0 °F 55.4 °F 88% 30.07 in 10.0 mi WSW 6.9 mph - N/A   Overcast
12:26 PM 59.0 °F 55.4 °F 88% 30.07 in 10.0 mi West 8.1 mph - N/A   Overcast
12:37 PM 59.0 °F 55.4 °F 88% 30.07 in 10.0 mi West 5.8 mph - N/A   Overcast
12:51 PM 59.0 °F 55.4 °F 88% 30.06 in 10.0 mi WSW 4.6 mph - N/A   Mostly Cloudy
12:55 PM 60.1 °F 55.8 °F 86% 30.06 in 10.0 mi West 5.8 mph - N/A   Overcast
1:55 PM 61.5 °F 55.4 °F 80% 30.04 in 10.0 mi West 4.6 mph - N/A   Overcast
2:17 PM 60.8 °F 55.4 °F 82% 30.02 in 10.0 mi WNW 1.2 mph - N/A   Mostly Cloudy
2:33 PM 60.8 °F 53.6 °F 77% 30.02 in 10.0 mi Variable 2.3 mph - N/A   Overcast
2:55 PM 61.7 °F 55.2 °F 79% 30.03 in 10.0 mi SSW 4.6 mph - N/A   Overcast
3:10 PM 62.6 °F 55.4 °F 77% 30.09 in 10.0 mi West 5.8 mph - N/A   Overcast
3:55 PM 62.1 °F 55.0 °F 78% 30.03 in 10.0 mi Calm Calm - N/A   Overcast
4:55 PM 60.8 °F 54.7 °F 80% 30.02 in 10.0 mi WSW 3.5 mph - N/A   Overcast
5:55 PM 57.4 °F 55.0 °F 92% 30.01 in 10.0 mi Calm Calm - N/A   Mostly Cloudy
6:55 PM 56.7 °F 55.9 °F 97% 30.02 in 10.0 mi Calm Calm - 0.00 in Rain Light Rain
7:14 PM 55.4 °F 53.6 °F 94% 30.00 in 10.0 mi North 2.3 mph - N/A   Overcast
7:55 PM 52.9 °F 52.5 °F 99% 30.02 in 10.0 mi NW 4.6 mph - N/A   Mostly Cloudy
8:55 PM 51.1 °F 50.9 °F 99% 30.04 in 10.0 mi NW 4.6 mph - N/A   Mostly Cloudy
9:55 PM 52.5 °F 52.3 °F 99% 30.04 in 10.0 mi West 4.6 mph - N/A   Overcast
10:55 PM 53.2 °F 53.1 °F 99% 30.05 in 7.0 mi West 5.8 mph - N/A   Overcast
11:55 PM 51.6 °F 51.1 °F 98% 30.06 in 10.0 mi NW 9.2 mph - N/A   Scattered Clouds